VOI1782 MMMX-MMGL

Flight info

Callsign VOI1782
Flight time 0h 55m
Altitude 29000
Route OVAGO3A OVAGO UT123 IGSON IGSON1B
Aircraft A20N/M-SDE2E3FGHIRWXY/LB1

Departure

Time 2026-05-08 02:42
Airport Mexico City Benito Juárez International Airport (MMMX)

Arrival

Time 2026-05-08 03:37
Airport Guadalajara International Airport (MMGL)
Time Latitude Longitude Altitude Speed Heading
2026-05-08 02:07 19.42237 -99.07929 7305 ft 0 kts 210°
2026-05-08 02:27 19.42240 -99.07927 7305 ft 2 kts 208°
2026-05-08 02:28 19.42255 -99.07919 7305 ft 2 kts 207°
2026-05-08 02:28 19.42269 -99.07911 7305 ft 2 kts 210°
2026-05-08 02:28 19.42282 -99.07899 7305 ft 2 kts 267°
2026-05-08 02:28 19.42276 -99.07884 7305 ft 2 kts 309°
2026-05-08 02:29 19.42270 -99.07877 7305 ft 0 kts 312°
2026-05-08 02:34 19.42271 -99.07877 7305 ft 0 kts 312°
2026-05-08 02:34 19.42271 -99.07878 7305 ft 0 kts 312°
2026-05-08 02:34 19.42294 -99.07905 7305 ft 9 kts 312°
2026-05-08 02:34 19.42343 -99.07964 7305 ft 13 kts 310°
2026-05-08 02:35 19.42395 -99.08044 7305 ft 9 kts 292°
2026-05-08 02:35 19.42408 -99.08108 7305 ft 11 kts 278°
2026-05-08 02:35 19.42426 -99.08178 7305 ft 4 kts 279°
2026-05-08 02:35 19.42416 -99.08200 7305 ft 6 kts 260°
2026-05-08 02:36 19.42454 -99.08249 7305 ft 13 kts 328°
2026-05-08 02:36 19.42548 -99.08316 7305 ft 18 kts 311°
2026-05-08 02:36 19.42599 -99.08425 7305 ft 14 kts 294°
2026-05-08 02:36 19.42628 -99.08496 7306 ft 0 kts 293°
2026-05-08 02:37 19.42629 -99.08498 7306 ft 0 kts 293°
2026-05-08 02:37 19.42630 -99.08501 7306 ft 0 kts 293°
2026-05-08 02:38 19.42631 -99.08504 7306 ft 3 kts 294°
2026-05-08 02:39 19.42652 -99.08552 7307 ft 12 kts 294°
2026-05-08 02:39 19.42675 -99.08663 7306 ft 20 kts 274°
2026-05-08 02:39 19.42684 -99.08805 7305 ft 20 kts 274°
2026-05-08 02:39 19.42691 -99.08905 7305 ft 9 kts 275°
2026-05-08 02:40 19.42696 -99.08965 7305 ft 7 kts 275°
2026-05-08 02:40 19.42702 -99.09028 7305 ft 12 kts 279°
2026-05-08 02:40 19.42741 -99.09087 7305 ft 5 kts 346°
2026-05-08 02:40 19.42754 -99.09067 7305 ft 17 kts 63°
2026-05-08 02:41 19.42928 -99.08745 7304 ft 82 kts 57°
2026-05-08 02:41 19.43327 -99.08025 7307 ft 144 kts 60°
2026-05-08 02:41 19.43936 -99.06954 7316 ft 191 kts 58°
2026-05-08 02:41 19.44692 -99.05721 7540 ft 203 kts 56°
2026-05-08 02:42 19.45510 -99.04480 7983 ft 208 kts 55°
2026-05-08 02:42 19.46268 -99.03134 8338 ft 219 kts 68°
2026-05-08 02:42 19.47019 -99.01671 8454 ft 242 kts 64°
2026-05-08 02:42 19.47886 -99.00025 8680 ft 265 kts 62°
2026-05-08 02:43 19.48838 -98.98274 9092 ft 281 kts 64°
2026-05-08 02:43 19.49609 -98.96362 9745 ft 285 kts 83°
2026-05-08 02:43 19.49574 -98.94343 10606 ft 265 kts 111°
2026-05-08 02:43 19.48765 -98.92640 11329 ft 259 kts 138°
2026-05-08 02:44 19.47321 -98.91529 11703 ft 258 kts 166°
2026-05-08 02:44 19.45577 -98.91228 12376 ft 251 kts 188°
2026-05-08 02:44 19.43941 -98.91711 13410 ft 242 kts 209°
2026-05-08 02:44 19.42626 -98.92822 14024 ft 245 kts 233°
2026-05-08 02:45 19.41760 -98.94423 14471 ft 257 kts 243°
2026-05-08 02:45 19.41054 -98.96169 15061 ft 262 kts 245°
2026-05-08 02:45 19.40368 -98.97938 15882 ft 256 kts 244°
2026-05-08 02:45 19.39677 -98.99704 16425 ft 264 kts 240°
2026-05-08 02:46 19.39190 -99.00916 16591 ft 274 kts 245°
2026-05-08 02:46 19.38444 -99.02774 17326 ft 269 kts 243°
2026-05-08 02:46 19.37713 -99.04595 18016 ft 271 kts 241°
2026-05-08 02:46 19.37092 -99.06547 18350 ft 286 kts 252°
2026-05-08 02:47 19.36718 -99.08642 18942 ft 288 kts 261°
2026-05-08 02:47 19.36407 -99.10771 19358 ft 299 kts 256°
2026-05-08 02:47 19.36085 -99.13003 19650 ft 311 kts 259°
2026-05-08 02:47 19.35761 -99.15267 20324 ft 308 kts 261°
2026-05-08 02:48 19.35447 -99.17460 21087 ft 306 kts 257°
2026-05-08 02:48 19.35114 -99.19736 21305 ft 320 kts 255°
2026-05-08 02:48 19.34768 -99.22085 21747 ft 322 kts 257°
2026-05-08 02:48 19.34432 -99.24404 22507 ft 317 kts 256°
2026-05-08 02:49 19.34085 -99.26754 22710 ft 330 kts 258°
2026-05-08 02:49 19.33729 -99.29168 23182 ft 329 kts 261°
2026-05-08 02:49 19.33385 -99.31530 23931 ft 323 kts 256°
2026-05-08 02:49 19.33035 -99.33905 24176 ft 332 kts 258°
2026-05-08 02:50 19.32673 -99.36343 24526 ft 334 kts 261°
2026-05-08 02:50 19.32311 -99.38765 25033 ft 334 kts 255°
2026-05-08 02:50 19.31868 -99.41221 25142 ft 345 kts 255°
2026-05-08 02:50 19.31385 -99.43731 25381 ft 352 kts 255°
2026-05-08 02:51 19.30888 -99.46304 25493 ft 363 kts 253°
2026-05-08 02:51 19.30379 -99.48922 25623 ft 371 kts 257°
2026-05-08 02:51 19.29858 -99.51633 25835 ft 379 kts 254°
2026-05-08 02:51 19.29320 -99.54416 25939 ft 388 kts 257°
2026-05-08 02:52 19.28788 -99.57183 26268 ft 390 kts 255°
2026-05-08 02:52 19.28237 -99.60031 26345 ft 400 kts 256°
2026-05-08 02:52 19.27678 -99.62931 26687 ft 402 kts 256°
2026-05-08 02:52 19.27111 -99.65862 26791 ft 410 kts 255°
2026-05-08 02:53 19.26538 -99.68820 27288 ft 407 kts 255°
2026-05-08 02:53 19.25966 -99.71772 27540 ft 413 kts 256°
2026-05-08 02:53 19.25390 -99.74744 27997 ft 411 kts 256°
2026-05-08 02:53 19.24818 -99.77691 28236 ft 416 kts 256°
2026-05-08 02:54 19.23688 -99.83718 28028 ft 414 kts 257°
2026-05-08 02:54 19.23164 -99.86688 27992 ft 407 kts 258°
2026-05-08 02:54 19.23102 -99.89696 28017 ft 413 kts 271°
2026-05-08 02:55 19.23428 -99.92726 28000 ft 413 kts 279°
2026-05-08 02:55 19.24799 -99.98516 28022 ft 408 kts 283°
2026-05-08 02:56 19.26421 -100.04332 27982 ft 411 kts 282°
2026-05-08 02:56 19.28112 -100.10236 28010 ft 427 kts 284°
2026-05-08 02:57 19.29866 -100.16311 27990 ft 433 kts 285°
2026-05-08 02:57 19.31603 -100.22303 27990 ft 422 kts 283°
2026-05-08 02:58 19.33354 -100.28379 27991 ft 438 kts 282°
2026-05-08 02:58 19.34243 -100.31466 28000 ft 449 kts 282°
2026-05-08 02:58 19.35166 -100.34673 28011 ft 459 kts 283°
2026-05-08 02:58 19.36094 -100.37885 27987 ft 447 kts 284°
2026-05-08 02:59 19.36995 -100.41001 27992 ft 437 kts 284°
2026-05-08 02:59 19.38737 -100.47052 27993 ft 422 kts 283°
2026-05-08 03:00 19.40446 -100.53016 27988 ft 430 kts 283°
2026-05-08 03:00 19.42213 -100.59194 27992 ft 442 kts 283°
2026-05-08 03:01 19.43994 -100.65398 28013 ft 438 kts 283°
2026-05-08 03:01 19.44874 -100.68476 27995 ft 432 kts 285°
2026-05-08 03:01 19.45726 -100.71452 28008 ft 424 kts 285°
2026-05-08 03:01 19.46587 -100.74463 27997 ft 421 kts 283°
2026-05-08 03:02 19.47441 -100.77466 28015 ft 431 kts 284°
2026-05-08 03:02 19.49184 -100.83587 27992 ft 440 kts 282°
2026-05-08 03:02 19.50076 -100.86718 27999 ft 446 kts 282°
2026-05-08 03:03 19.50964 -100.89832 27993 ft 436 kts 283°
2026-05-08 03:03 19.51838 -100.92896 28000 ft 430 kts 284°
2026-05-08 03:03 19.52693 -100.95898 28001 ft 420 kts 284°
2026-05-08 03:04 19.54386 -101.01861 27999 ft 426 kts 283°
2026-05-08 03:04 19.55236 -101.04865 27995 ft 430 kts 282°
2026-05-08 03:04 19.56115 -101.07970 28012 ft 439 kts 282°
2026-05-08 03:04 19.56990 -101.11071 27999 ft 451 kts 282°
2026-05-08 03:05 19.57900 -101.14292 27994 ft 455 kts 284°
2026-05-08 03:05 19.58801 -101.17467 28017 ft 444 kts 284°
2026-05-08 03:05 19.59684 -101.20574 27999 ft 439 kts 282°
2026-05-08 03:05 19.60554 -101.23656 27997 ft 433 kts 284°
2026-05-08 03:06 19.61412 -101.26690 27995 ft 428 kts 282°
2026-05-08 03:06 19.62275 -101.29755 27988 ft 433 kts 282°
2026-05-08 03:06 19.63142 -101.32836 28003 ft 440 kts 282°
2026-05-08 03:06 19.64027 -101.35989 27996 ft 452 kts 282°
2026-05-08 03:07 19.64929 -101.39201 28002 ft 453 kts 284°
2026-05-08 03:07 19.65812 -101.42328 27999 ft 443 kts 283°
2026-05-08 03:07 19.66685 -101.45426 27994 ft 433 kts 284°
2026-05-08 03:08 19.68378 -101.51447 27999 ft 423 kts 283°
2026-05-08 03:08 19.70033 -101.57346 28020 ft 404 kts 282°
2026-05-08 03:08 19.70832 -101.60195 27917 ft 401 kts 282°
2026-05-08 03:09 19.71630 -101.63054 27672 ft 406 kts 282°
2026-05-08 03:09 19.72429 -101.65923 27416 ft 401 kts 284°
2026-05-08 03:09 19.73205 -101.68693 27168 ft 394 kts 283°
2026-05-08 03:09 19.73977 -101.71455 26922 ft 385 kts 284°
2026-05-08 03:10 19.74726 -101.74138 26665 ft 373 kts 284°
2026-05-08 03:10 19.75463 -101.76780 26415 ft 379 kts 282°
2026-05-08 03:10 19.76212 -101.79478 26178 ft 378 kts 281°
2026-05-08 03:10 19.76965 -101.82187 25933 ft 386 kts 284°
2026-05-08 03:11 19.77722 -101.84905 25669 ft 380 kts 282°
2026-05-08 03:11 19.78471 -101.87602 25437 ft 395 kts 281°
2026-05-08 03:11 19.79251 -101.90411 25183 ft 395 kts 281°
2026-05-08 03:11 19.80029 -101.93198 24946 ft 389 kts 281°
2026-05-08 03:12 19.80788 -101.95921 24688 ft 379 kts 283°
2026-05-08 03:12 19.81526 -101.98569 24436 ft 371 kts 282°
2026-05-08 03:12 19.82246 -102.01165 24181 ft 361 kts 282°
2026-05-08 03:12 19.82944 -102.03671 23938 ft 346 kts 283°
2026-05-08 03:13 19.83611 -102.06075 23702 ft 332 kts 283°
2026-05-08 03:13 19.84251 -102.08385 23456 ft 321 kts 282°
2026-05-08 03:13 19.84874 -102.10640 23213 ft 314 kts 284°
2026-05-08 03:13 19.85490 -102.12880 22856 ft 322 kts 282°
2026-05-08 03:14 19.86123 -102.15199 22715 ft 329 kts 281°
2026-05-08 03:14 19.86757 -102.17491 22863 ft 317 kts 281°
2026-05-08 03:14 19.87388 -102.19780 23024 ft 326 kts 280°
2026-05-08 03:14 19.88031 -102.22122 23006 ft 336 kts 280°
2026-05-08 03:15 19.88691 -102.24525 23004 ft 345 kts 280°
2026-05-08 03:15 19.89369 -102.26974 22999 ft 342 kts 281°
2026-05-08 03:15 19.90062 -102.29379 22999 ft 340 kts 283°
2026-05-08 03:15 19.90837 -102.31774 23012 ft 343 kts 285°
2026-05-08 03:16 19.91624 -102.34121 22987 ft 329 kts 285°
2026-05-08 03:16 19.92376 -102.36346 23012 ft 322 kts 285°
2026-05-08 03:16 19.93115 -102.38558 23003 ft 312 kts 287°
2026-05-08 03:16 19.93826 -102.40689 22997 ft 301 kts 287°
2026-05-08 03:17 19.94521 -102.42775 23000 ft 298 kts 287°
2026-05-08 03:17 19.95216 -102.44855 23000 ft 298 kts 287°
2026-05-08 03:17 19.95914 -102.46932 23001 ft 298 kts 287°
2026-05-08 03:17 19.96614 -102.49011 23001 ft 299 kts 287°
2026-05-08 03:18 19.97315 -102.51098 22999 ft 299 kts 287°
2026-05-08 03:18 19.98015 -102.53180 22933 ft 295 kts 286°
2026-05-08 03:18 19.98693 -102.55193 22549 ft 291 kts 287°
2026-05-08 03:18 19.99368 -102.57213 22160 ft 287 kts 287°
2026-05-08 03:19 20.00110 -102.59180 21719 ft 287 kts 294°
2026-05-08 03:19 20.01405 -102.60866 21054 ft 311 kts 317°
2026-05-08 03:19 20.03402 -102.61947 20302 ft 333 kts 341°
2026-05-08 03:19 20.05720 -102.62149 19814 ft 336 kts
2026-05-08 03:20 20.08043 -102.61928 19327 ft 335 kts
2026-05-08 03:20 20.10338 -102.61616 18816 ft 338 kts
2026-05-08 03:20 20.12685 -102.61282 18288 ft 340 kts
2026-05-08 03:20 20.15040 -102.60964 17766 ft 342 kts
2026-05-08 03:21 20.17407 -102.60635 17231 ft 343 kts
2026-05-08 03:21 20.19783 -102.60278 16703 ft 344 kts
2026-05-08 03:21 20.22138 -102.59929 16169 ft 340 kts
2026-05-08 03:21 20.24459 -102.59603 15649 ft 334 kts
2026-05-08 03:22 20.26731 -102.59271 15121 ft 328 kts
2026-05-08 03:22 20.28949 -102.58933 14615 ft 323 kts
2026-05-08 03:22 20.31158 -102.58607 14169 ft 316 kts
2026-05-08 03:22 20.33289 -102.58297 13982 ft 301 kts
2026-05-08 03:23 20.35289 -102.57984 13983 ft 281 kts
2026-05-08 03:23 20.37189 -102.57716 14005 ft 269 kts 357°
2026-05-08 03:23 20.38980 -102.58048 14029 ft 258 kts 329°
2026-05-08 03:23 20.40321 -102.59177 13979 ft 237 kts 298°
2026-05-08 03:24 20.40984 -102.60739 14000 ft 233 kts 278°
2026-05-08 03:24 20.41428 -102.62462 14016 ft 248 kts 276°
2026-05-08 03:24 20.41836 -102.64257 13986 ft 244 kts 268°
2026-05-08 03:24 20.41848 -102.65976 13998 ft 230 kts 262°
2026-05-08 03:25 20.41794 -102.67682 13655 ft 229 kts 264°
2026-05-08 03:25 20.41703 -102.69368 13354 ft 227 kts 259°
2026-05-08 03:25 20.41605 -102.71038 13114 ft 220 kts 257°
2026-05-08 03:25 20.41511 -102.72648 12914 ft 216 kts 258°
2026-05-08 03:26 20.41409 -102.74304 12564 ft 232 kts 257°
2026-05-08 03:26 20.41302 -102.76045 12182 ft 233 kts 258°
2026-05-08 03:26 20.41211 -102.77690 11917 ft 222 kts 264°
2026-05-08 03:26 20.41122 -102.79299 11542 ft 215 kts 263°
2026-05-08 03:27 20.41033 -102.80850 11276 ft 203 kts 263°
2026-05-08 03:27 20.40946 -102.82374 10755 ft 210 kts 263°
2026-05-08 03:27 20.40854 -102.83931 10631 ft 212 kts 259°
2026-05-08 03:27 20.40757 -102.85538 10565 ft 220 kts 257°
2026-05-08 03:28 20.40665 -102.87138 10454 ft 210 kts 264°
2026-05-08 03:28 20.40585 -102.88639 10361 ft 199 kts 260°
2026-05-08 03:28 20.40498 -102.90094 10303 ft 192 kts 266°
2026-05-08 03:28 20.40416 -102.91486 10194 ft 186 kts 266°
2026-05-08 03:29 20.40335 -102.92861 10116 ft 186 kts 265°
2026-05-08 03:29 20.40251 -102.94267 10027 ft 197 kts 258°
2026-05-08 03:29 20.40160 -102.95723 9928 ft 198 kts 257°
2026-05-08 03:29 20.40071 -102.97203 9692 ft 197 kts 259°
2026-05-08 03:30 20.39893 -103.00179 9195 ft 198 kts 265°
2026-05-08 03:30 20.40366 -103.03047 8988 ft 195 kts 284°
2026-05-08 03:31 20.41423 -103.05535 8988 ft 202 kts 287°
2026-05-08 03:31 20.42598 -103.08226 9001 ft 208 kts 286°
2026-05-08 03:32 20.43186 -103.09561 8996 ft 192 kts 288°
2026-05-08 03:32 20.43737 -103.10823 8716 ft 190 kts 288°
2026-05-08 03:32 20.44272 -103.12059 8548 ft 178 kts 284°
2026-05-08 03:32 20.44790 -103.13277 8148 ft 177 kts 290°
2026-05-08 03:33 20.45260 -103.14398 8011 ft 155 kts 287°
2026-05-08 03:33 20.45646 -103.15435 7674 ft 148 kts 288°
2026-05-08 03:33 20.46059 -103.16440 7392 ft 150 kts 285°
2026-05-08 03:33 20.46507 -103.17521 7241 ft 167 kts 284°
2026-05-08 03:34 20.46977 -103.18647 7191 ft 161 kts 285°
2026-05-08 03:34 20.47427 -103.19716 6806 ft 154 kts 284°
2026-05-08 03:34 20.47840 -103.20696 6581 ft 145 kts 279°
2026-05-08 03:34 20.48260 -103.21766 6634 ft 151 kts 279°
2026-05-08 03:35 20.48580 -103.22585 7785 ft 101 kts 280°
2026-05-08 03:35 20.48826 -103.23299 8019 ft 128 kts 277°
2026-05-08 03:35 20.49340 -103.24361 7682 ft 186 kts 295°
2026-05-08 03:35 20.50031 -103.25657 7061 ft 213 kts 291°
2026-05-08 03:36 20.50717 -103.27109 5642 ft 222 kts 289°
2026-05-08 03:36 20.51212 -103.28615 5290 ft 191 kts 283°
2026-05-08 03:36 20.51668 -103.29849 5022 ft 169 kts 288°
2026-05-08 03:36 20.52024 -103.30732 5023 ft 86 kts 291°
2026-05-08 03:37 20.52148 -103.31020 5024 ft 4 kts 296°
2026-05-08 03:37 20.52232 -103.31198 5027 ft 60 kts 296°
2026-05-08 03:37 20.52409 -103.31608 5022 ft 34 kts 294°
2026-05-08 03:37 20.52490 -103.31805 5024 ft 26 kts 293°
2026-05-08 03:38 20.52571 -103.31942 5024 ft 4 kts 321°
2026-05-08 03:38 20.52577 -103.31943 5024 ft 0 kts 353°
2026-05-08 03:38 20.52613 -103.31929 5024 ft 10 kts 35°
2026-05-08 03:38 20.52643 -103.31912 5024 ft 0 kts 21°
2026-05-08 03:39 20.52644 -103.31911 5024 ft 1 kts 25°
2026-05-08 03:39 20.52729 -103.31858 5024 ft 27 kts 30°
2026-05-08 03:39 20.52820 -103.31753 5024 ft 12 kts 99°
2026-05-08 03:40 20.52802 -103.31669 5024 ft 11 kts 102°
2026-05-08 03:40 20.52792 -103.31596 5024 ft 9 kts 96°
2026-05-08 03:40 20.52784 -103.31519 5024 ft 11 kts 98°
2026-05-08 03:40 20.52757 -103.31439 5023 ft 13 kts 113°
2026-05-08 03:41 20.52719 -103.31349 5021 ft 14 kts 115°
2026-05-08 03:41 20.52674 -103.31243 5023 ft 17 kts 112°
2026-05-08 03:41 20.52645 -103.31165 5022 ft 0 kts 112°
2026-05-08 03:44 20.52633 -103.31139 5023 ft 6 kts 116°
2026-05-08 03:44 20.52615 -103.31099 5023 ft 6 kts 113°
2026-05-08 03:44 20.52595 -103.31050 5023 ft 8 kts 114°
2026-05-08 03:44 20.52568 -103.30986 5023 ft 11 kts 114°
2026-05-08 03:45 20.52534 -103.30907 5023 ft 12 kts 115°
2026-05-08 03:45 20.52496 -103.30822 5023 ft 13 kts 114°
2026-05-08 03:45 20.52496 -103.30735 5023 ft 12 kts 72°
2026-05-08 03:45 20.52522 -103.30649 5023 ft 13 kts 75°
2026-05-08 03:46 20.52552 -103.30559 5023 ft 12 kts 70°
2026-05-08 03:46 20.52570 -103.30508 5019 ft 0 kts 70°